Weather Roundup
Issued by NWS

Home | Current Version | Previous Version | Graphics & Text | Print | Product List | Glossary On
Versions: 1 2 3 4 5 6 7 8 9 10 11 12 13 14 15 16 17 18 19 20 21 22 23 24 25 26 27 28 29 30 31 32 33 34 35 36 37 38 39 40 41 42 43 44 45 46 47 48 49 50
000
NZUS93 KARX 210910
HRRWXR

CURRENT HOURLY OBSERVATIONS ACROSS
MUCH OF THE UPPER MISSISSIPPI VALLEY
NATIONAL WEATHER SERVICE LA CROSSE WI
300 AM CST WED FEB 21 2018


...SOUTHEAST MINNESOTA...


CITY           SKY/WX    TMP DP  RH WIND       PRES   REMARKS
ROCHESTER      MIX PCPN   6   3  87 NW12      30.41R WCI  -9
ROCHESTER/MAYO FAIR       8   3  80 W8        30.43R WCI  -5
WINONA         FAIR      10   5  79 NW6       30.45R WCI   1
AUSTIN         FAIR       7   1  78 NW6       30.44R WCI  -3
ALBERT LEA     FAIR       7   1  78 NW3       30.44R
DODGE CENTER   FAIR       5   0  78 W5        30.41R WCI  -4
PRESTON        FAIR       7   2  80 NW8       30.42R WCI  -5
OWATONNA       FAIR       3   0  85 CALM      30.45R
FARIBAULT      FAIR       3   0  85 CALM      30.46R
$$

...ELSEWHERE IN MINNESOTA...


CITY           SKY/WX    TMP DP  RH WIND       PRES   REMARKS
MINNEAPOLIS    FAIR       6   1  80 CALM      30.45R
INTNL FALLS    FAIR      -7 -10  87 SW5       30.23R WCI -18
DULUTH         FAIR       1  -4  79 W13       30.27R WCI -17
RED WING       FAIR       5   0  78 CALM      30.45R
REDWOOD FALLS  CLOUDY     2  -4  76 W9        30.46R WCI -13
MANKATO        FAIR       5  -1  76 W8        30.47R WCI  -8
WORTHINGTON    CLOUDY     0  -4  83 W10       30.45R WCI -16
FAIRMONT       CLEAR      3  -2  79 W9        30.48R WCI -12
$$

...SOUTHWEST WISCONSIN...


CITY           SKY/WX    TMP DP  RH WIND       PRES   REMARKS
LA CROSSE      FAIR      14   7  73 NW13      30.44R WCI   0
PRAIRIE DU CHI FAIR      17   9  71 NW12      30.44R WCI   4
BOSCOBEL       FAIR      19  11  70 NW8G17    30.42R WCI   9
LONE ROCK      CLOUDY    21  15  78 NW9       30.39R WCI  11
PLATTEVILLE    FAIR      20  16  84 NW12      30.37R WCI   8
FORT MC COY    FAIR      15  11  85 W6        30.41R WCI   6
CAMP DOUGLAS   FAIR      16  11  81 NW9       30.37R WCI   4
MAUSTON-NEW LI FAIR      18  13  79 NW10G16   30.36R WCI   6
VIROQUA        PTSUNNY   14  12  92 NW8       30.37R WCI   2
WIS DELLS      CLOUDY    20  13  75 NW5       30.35R WCI  14
$$

...ELSEWHERE IN WISCONSIN...


CITY           SKY/WX    TMP DP  RH WIND       PRES   REMARKS
MILWAUKEE      CLOUDY    28  19  69 N14       30.28R WCI  17
MADISON        FAIR      21  13  71 N14G20    30.34R WCI   8
GREEN BAY      FAIR      23  14  68 NW13G23   30.30R WCI  11
EAU CLAIRE     FAIR       7   0  73 W6        30.41R WCI  -3
BLACK RVR FLS  FAIR      13   6  74 NW7       30.41R WCI   3
MEDFORD        FAIR       9   5  84 W6        30.29R WCI  -1
WAUSAU         FAIR      13   8  81 NW7       30.29R WCI   3
WIS RAPIDS     FAIR      15   9  76 NW9       30.35R WCI   3
MARSHFIELD     FAIR      12   7  80 W12       30.31R WCI  -2
RICE LAKE      FAIR       3  -1  81 CALM      30.40R
$$

...NORTHEAST IOWA...


CITY           SKY/WX    TMP DP  RH WIND       PRES   REMARKS
WATERLOO       FAIR      13   7  77 NW13      30.45R WCI  -2
DUBUQUE        FAIR      18  11  74 N15       30.37R WCI   4
DECORAH        FAIR      10   7  85 NW14      30.40R WCI  -5
MASON CITY     CLEAR      8   2  76 NW12      30.46R WCI  -7
CHARLES CITY   FAIR      10   9  92 NW15      30.44R WCI  -6
OELWEIN        FAIR      14  12  92 NW18      30.43R WCI  -3
$$

...ELSEWHERE IN IOWA...


CITY           SKY/WX    TMP DP  RH WIND       PRES   REMARKS
DES MOINES     PTCLDY    14   8  77 N13       30.48R WCI   0
IOWA CITY      FAIR      20  11  68 NW15      30.44R WCI   6
FORT DODGE     CLEAR      7   3  84 NW5       30.49R WCI  -2
MARSHALLTOWN   PTCLDY    13   8  81 N14       30.46R WCI  -2
CEDAR RAPIDS   FAIR      18  11  74 N18       30.41R WCI   2
$$

...NORTHERN ILLINOIS...


CITY           SKY/WX    TMP DP  RH WIND       PRES   REMARKS
CHICAGO-OHARE  CLOUDY    31  25  78 NW12      30.27R WCI  22
CHICAGO-MIDWAY CLOUDY    33  30  88 N12       30.26R FOG     WCI  24
MOLINE         CLOUDY    23  16  74 NW15      30.38R WCI  10
ROCKFORD       CLOUDY    27  21  78 N15       30.33R WCI  15
PEORIA         CLOUDY    26  22  84 NW7G21    30.35R WCI  18
$$

NOTE: "FAIR" INDICATES FEW OR NO CLOUDS BELOW 12,000 FEET WITH NO
SIGNIFICANT WEATHER AND/OR OBSTRUCTIONS TO VISIBILITY. WIND
SPEEDS ARE IN MILES-PER-HOUR.




USA.gov is the U.S. government's official web portal to all federal, state and local government web resources and services.